Warning: filectime(): stat failed for /home/allspect/public_html/aero/motest-cam/timelapse-current.mp4 in /home/allspect/public_html/aero/motest-cam/index.php on line 35
All Spectrum Aviation Van Nuys Pilot Shop and Aircraft Supplies - KVNY

All Spectrum Aviation - Van Nuys Airport - KVNY

HOME

Condor Squadron KVNY Webcam

Visit our Electronics Store

Condor Squadron Webcam - Van Nuys Airport - KVNY
Picture taken: Sat, 22 May 2021 11:36:35 -0700
YouTube Channel!    Latest Timelapse Movie    Full Size Image    Regular Size Image    

2022/05/25 08:51 KVNY 250851Z AUTO 11005KT 5SM HZ OVC006 16/13 A2985 RMK AO2 SLP099 T01560128 58002

HOME

Condor Squadron KVNY Webcam

Visit our Electronics Store